TimeCDT,TemperatureF,Dew PointF,Humidity,Sea Level PressureIn,VisibilityMPH,Wind Direction,Wind SpeedMPH,Gust SpeedMPH,PrecipitationIn,Events,Conditions,WindDirDegrees,DateUTC
12:15 AM,41.0,38.3,90,29.97,10.0,Calm,Calm,-,N/A,,Clear,0,2012-10-21 05:15:00
12:35 AM,40.5,37.8,90,29.98,10.0,Calm,Calm,-,N/A,,Clear,0,2012-10-21 05:35:00
12:55 AM,40.1,37.4,90,29.99,10.0,Calm,Calm,-,N/A,,Clear,0,2012-10-21 05:55:00
1:15 AM,39.6,37.4,92,30.00,10.0,Calm,Calm,-,N/A,,Clear,0,2012-10-21 06:15:00
1:35 AM,37.2,35.2,93,30.00,7.0,Calm,Calm,-,N/A,,Clear,0,2012-10-21 06:35:00
1:55 AM,37.0,35.6,95,30.00,7.0,Calm,Calm,-,N/A,,Clear,0,2012-10-21 06:55:00
2:15 AM,36.3,35.2,96,30.00,5.0,Calm,Calm,-,N/A,,Clear,0,2012-10-21 07:15:00
2:35 AM,36.3,35.1,95,30.01,10.0,Calm,Calm,-,N/A,,Clear,0,2012-10-21 07:35:00
2:55 AM,37.9,37.0,97,30.01,10.0,Calm,Calm,-,N/A,,Clear,0,2012-10-21 07:55:00
3:15 AM,35.4,34.2,95,30.01,5.0,Calm,Calm,-,N/A,,Clear,0,2012-10-21 08:15:00
3:35 AM,35.6,34.7,97,30.01,5.0,East,3.5,-,N/A,,Clear,100,2012-10-21 08:35:00
3:55 AM,36.1,35.1,96,30.01,7.0,East,3.5,-,N/A,,Clear,100,2012-10-21 08:55:00
4:15 AM,36.1,35.1,96,30.01,7.0,Calm,Calm,-,N/A,,Clear,0,2012-10-21 09:15:00
4:35 AM,37.0,36.0,96,30.01,7.0,Calm,Calm,-,N/A,,Clear,0,2012-10-21 09:35:00
4:55 AM,37.4,36.3,96,30.02,7.0,ESE,4.6,-,N/A,,Clear,120,2012-10-21 09:55:00
5:15 AM,37.4,36.1,95,30.02,7.0,SE,5.8,-,N/A,,Clear,140,2012-10-21 10:15:00
5:35 AM,37.9,36.7,95,30.03,7.0,ESE,3.5,-,N/A,,Clear,120,2012-10-21 10:35:00
5:55 AM,38.1,36.9,95,30.03,7.0,SE,4.6,-,N/A,,Clear,130,2012-10-21 10:55:00
6:15 AM,38.5,37.4,96,30.03,7.0,ESE,6.9,-,N/A,,Clear,120,2012-10-21 11:15:00
6:35 AM,38.7,37.4,95,30.03,7.0,SE,6.9,-,N/A,,Clear,130,2012-10-21 11:35:00
6:55 AM,38.7,37.4,95,30.03,7.0,ESE,6.9,-,N/A,,Clear,120,2012-10-21 11:55:00
7:15 AM,38.3,37.0,95,30.03,5.0,SE,4.6,-,N/A,,Clear,130,2012-10-21 12:15:00
7:35 AM,38.8,37.6,95,30.03,5.0,East,4.6,-,N/A,,Clear,100,2012-10-21 12:35:00
7:55 AM,39.9,38.7,95,30.03,5.0,ESE,5.8,-,N/A,,Clear,110,2012-10-21 12:55:00
8:15 AM,41.9,40.1,93,30.04,5.0,SE,4.6,-,N/A,,Clear,130,2012-10-21 13:15:00
8:35 AM,43.9,41.0,90,30.04,7.0,ESE,4.6,-,N/A,,Clear,120,2012-10-21 13:35:00
8:55 AM,46.6,42.8,87,30.04,10.0,SE,5.8,-,N/A,,Clear,130,2012-10-21 13:55:00
9:15 AM,50.0,44.4,81,30.05,10.0,SE,8.1,-,N/A,,Clear,140,2012-10-21 14:15:00
9:35 AM,51.8,46.4,82,30.05,10.0,SE,9.2,-,N/A,,Clear,130,2012-10-21 14:35:00
9:55 AM,54.1,45.9,74,30.06,10.0,SE,12.7,-,N/A,,Clear,130,2012-10-21 14:55:00
10:15 AM,55.6,46.2,71,30.05,10.0,SSE,13.8,-,N/A,,Clear,150,2012-10-21 15:15:00
10:35 AM,57.2,48.2,72,30.05,10.0,SE,11.5,16.1,N/A,,Clear,130,2012-10-21 15:35:00
10:55 AM,59.0,47.1,65,30.04,10.0,SE,12.7,-,N/A,,Clear,130,2012-10-21 15:55:00
11:15 AM,60.8,47.7,62,30.04,10.0,SE,12.7,-,N/A,,Clear,140,2012-10-21 16:15:00
11:35 AM,62.6,48.2,59,30.04,10.0,SE,11.5,16.1,N/A,,Clear,140,2012-10-21 16:35:00
11:55 AM,62.6,48.2,59,30.03,10.0,SE,12.7,-,N/A,,Clear,140,2012-10-21 16:55:00
12:15 PM,64.4,48.0,55,30.02,10.0,SE,12.7,-,N/A,,Clear,140,2012-10-21 17:15:00
12:35 PM,65.3,48.4,54,30.01,10.0,SE,13.8,17.3,N/A,,Clear,130,2012-10-21 17:35:00
12:55 PM,66.2,48.4,53,30.01,10.0,SSE,11.5,19.6,N/A,,Clear,150,2012-10-21 17:55:00
1:15 PM,66.7,48.0,51,30.00,10.0,SE,11.5,16.1,N/A,,Clear,140,2012-10-21 18:15:00
1:35 PM,67.5,47.8,49,30.00,10.0,SE,11.5,-,N/A,,Clear,140,2012-10-21 18:35:00
1:55 PM,68.2,48.2,49,30.00,10.0,SE,11.5,-,N/A,,Clear,140,2012-10-21 18:55:00
2:15 PM,68.9,48.0,47,29.99,10.0,SE,12.7,-,N/A,,Clear,130,2012-10-21 19:15:00
2:35 PM,69.1,48.2,47,29.97,10.0,SSE,10.4,-,N/A,,Clear,150,2012-10-21 19:35:00
2:55 PM,69.4,47.8,46,29.97,10.0,SE,10.4,-,N/A,,Clear,140,2012-10-21 19:55:00
3:15 PM,69.8,48.2,46,29.97,10.0,SSE,11.5,16.1,N/A,,Clear,150,2012-10-21 20:15:00
3:35 PM,69.6,47.8,46,29.97,10.0,SE,11.5,-,N/A,,Clear,140,2012-10-21 20:35:00
3:55 PM,70.0,48.0,46,29.97,10.0,SSE,11.5,-,N/A,,Clear,160,2012-10-21 20:55:00
4:15 PM,70.0,48.0,46,29.96,10.0,SSE,10.4,-,N/A,,Clear,150,2012-10-21 21:15:00
4:35 PM,69.6,47.7,45,29.97,10.0,SSE,9.2,-,N/A,,Clear,150,2012-10-21 21:35:00
4:55 PM,69.8,48.2,46,29.96,10.0,SSE,8.1,-,N/A,,Clear,150,2012-10-21 21:55:00
5:15 PM,68.0,48.2,49,29.96,10.0,SE,9.2,-,N/A,,Clear,140,2012-10-21 22:15:00
5:35 PM,67.1,48.6,51,29.97,10.0,SE,5.8,-,N/A,,Clear,140,2012-10-21 22:35:00
5:55 PM,65.3,48.6,55,29.97,10.0,SE,4.6,-,N/A,,Clear,130,2012-10-21 22:55:00
6:15 PM,62.4,48.9,61,29.97,10.0,ESE,4.6,-,N/A,,Clear,120,2012-10-21 23:15:00
6:35 PM,61.3,48.7,63,29.98,10.0,ESE,4.6,-,N/A,,Clear,120,2012-10-21 23:35:00
6:55 PM,60.8,48.6,64,29.99,10.0,ESE,3.5,-,N/A,,Clear,120,2012-10-21 23:55:00
7:15 PM,58.6,48.6,69,29.99,10.0,ESE,4.6,-,N/A,,Clear,120,2012-10-22 00:15:00
7:35 PM,59.2,48.6,68,29.99,10.0,SE,4.6,-,N/A,,Clear,130,2012-10-22 00:35:00
7:55 PM,58.1,48.2,70,29.99,10.0,SE,5.8,-,N/A,,Clear,130,2012-10-22 00:55:00
8:15 PM,59.0,48.2,67,29.99,10.0,ESE,4.6,-,N/A,,Clear,120,2012-10-22 01:15:00
8:35 PM,57.2,48.2,72,30.00,10.0,ESE,4.6,-,N/A,,Clear,120,2012-10-22 01:35:00
8:55 PM,55.4,47.7,75,30.00,10.0,ESE,5.8,-,N/A,,Clear,110,2012-10-22 01:55:00
9:15 PM,55.4,48.2,77,30.00,10.0,SE,6.9,-,N/A,,Clear,130,2012-10-22 02:15:00
9:35 PM,55.0,47.5,76,30.00,10.0,ESE,5.8,-,N/A,,Clear,120,2012-10-22 02:35:00
9:55 PM,54.9,47.5,76,30.00,10.0,ESE,5.8,-,N/A,,Clear,120,2012-10-22 02:55:00
10:15 PM,54.3,47.3,77,30.00,10.0,ESE,4.6,-,N/A,,Clear,120,2012-10-22 03:15:00
10:35 PM,51.6,46.6,83,30.00,10.0,SE,3.5,-,N/A,,Clear,140,2012-10-22 03:35:00
10:55 PM,51.8,48.2,88,30.00,10.0,ESE,5.8,-,N/A,,Clear,110,2012-10-22 03:55:00
11:15 PM,53.2,47.5,81,30.00,10.0,SE,4.6,-,N/A,,Clear,130,2012-10-22 04:15:00
11:35 PM,55.2,48.2,77,29.99,10.0,SE,6.9,-,N/A,,Clear,140,2012-10-22 04:35:00
11:55 PM,55.8,48.4,76,29.99,10.0,SE,5.8,-,N/A,,Clear,130,2012-10-22 04:55:00